Regional Weather Roundup
Issued by NWS Mobile, AL

Home | Current Version | Previous Version | Text Only | Print | Product List | Glossary On
Versions: 1 2 3 4 5 6 7 8 9 10 11 12 13 14 15 16 17 18 19 20 21 22 23 24 25 26 27
000
ASUS44 KMOB 190912
RWRMOB
REGIONAL WEATHER ROUNDUP
NATIONAL WEATHER SERVICE MOBILE AL
400 AM CDT SAT AUG 19 2017

NOTE: "FAIR" INDICATES FEW OR NO CLOUDS BELOW 12,000 FEET WITH NO
      SIGNIFICANT WEATHER AND/OR OBSTRUCTIONS TO VISIBILITY.

  * THESE STATIONS ARE PART OF THE UNIVERSITY OF SOUTH ALABAMA
    MESONET AND ARE NOT UNDER NWS OR FAA QUALITY CONTROL.

ALZ061>064-191000-
COASTAL ALABAMA

CITY           SKY/WX    TMP DP  RH WIND       PRES   REMARKS
MOBILE REG APT CLOUDY    75  73  93 CALM      29.99S
BROOKLEY FIELD PTCLDY    76  76 100 CALM      30.00R
USA CAMPUS*      N/A     72  70  94 CALM      29.99R
DOG RIVER*     NOT AVBL


CITY           SKY/WX    TMP DP  RH WIND       PRES   REMARKS
GULF SHORES    MOCLDY    75  75 100 N3        29.97S

$$

ALZ051>060-191000-
INTERIOR SOUTHWEST AND SOUTH CENTRAL ALABAMA

CITY           SKY/WX    TMP DP  RH WIND       PRES   REMARKS
GREENVILLE     PTCLDY    76  72  87 W7        29.99S
EVERGREEN      PTCLDY    74  72  93 CALM      29.99S FOG
ATMORE*        NOT AVBL
ANDALUSIA/OPP  CLEAR     78  74  87 NW5       29.98S
ANDALUSIA*       N/A     75  73  94 N3        29.99R
FLORALA APT      N/A    N/A N/A N/A MISG      29.99S
FLORALA*         N/A     77  73  88 CALM      30.66R

$$

FLZ001>006-191000-
WESTERN FLORIDA PANHANDLE

CITY           SKY/WX    TMP DP  RH WIND       PRES   REMARKS
PENSACOLA      CLOUDY    78  72  81 NW5       29.97R
NAS PENSACOLA  CLOUDY    76  73  91 CALM      29.97R
MILTON         CLEAR     75  73  93 N5        29.97S
WHTNG S FIELD  CLEAR     77  73  87 VRB3      29.96S


CITY           SKY/WX    TMP DP  RH WIND       PRES   REMARKS
JAY*             N/A     75  73  94 N5        29.98S
DUKE FIELD     CLEAR     74  72  93 CALM      29.96S
CRESTVIEW      CLEAR     77  73  87 N5        29.98S
VALPARAISO     CLEAR     76  72  87 N5        29.95S
DESTIN         CLEAR     80  73  79 N7        29.95F

$$

MSZ076-079-191000-
INTERIOR SOUTHEAST MISSISSIPPI

CITY           SKY/WX    TMP DP  RH WIND       PRES   REMARKS
LEAKESVILLE*     N/A     73  73 100 CALM      30.01
AGRICOLA*        N/A     73  72  94 CALM      29.99

$$

MARINE OBSERVATIONS

STATION/POSITION TIME  TEMP    WIND        PRES    WAVE
                       AIR SEA DIR/SP/G            HT/PER
                 (UTC) (F)     (DEG/KT/KT) (MB)    (FT/S)
PASCAGOULA       0848   78     350/  3/  4 1015.0R
PETIT BOIS ISLND 0848   81     340/  7/  9 1015.8R
GRAND BAY        0730   78     360/  3     1016.0S
KATRINA CUT      0830   83     320/  9     1014.6S
CEDAR POINT      0830   80     340/  7     1014.9S
E DAUPHIN ISLAND 0800   82     320/  8/  9 1014.4F
MIDDLE BAY LIGHT 0830   81     320/  8     1014.9F
USCG MOBILE BAY  0848   77 86  340/  2/  3 1015.9R
STATE DOCKS      0848   77 86              1015.2R
MEAHER PARK      0830   78     310/  1     1015.6R
WEEKS BAY        0745   76                   N/A
FORT MORGAN      0848   83     340/ 12/ 13   N/A
12 S ORANGE BCH  0850   84 86  300/  6/  8 1014.4S   1
PENSACOLA BAY    0848   78 86              1015.0R
64 S DAUPHIN ISL 0850   84 88  300/ 10/ 12 1015.1F   1/ 6
67 S FORT MORGAN 0830   85        CALM     1014.9F

$$

SELECTED LOCATIONS ACROSS THE REGION

CITY           SKY/WX    TMP DP  RH WIND       PRES   REMARKS
NEW ORLEANS    PTCLDY    81  78  91 W7        29.99R
GULFPORT       CLEAR     77  76  96 CALM      29.97S
PASCAGOULA AP  CLEAR     74  71  91 CALM      29.98R
PASCAGOULA*      N/A    N/A N/A N/A CALM        N/A
HATTIESBURG    CLEAR     74  74 100 CALM      30.00S
LAUREL         CLEAR     75  73  93 CALM      30.01S
MERIDIAN       PTCLDY    76  75  97 SW3       29.99F
JACKSON        PTCLDY    76  74  93 S3        29.99F
MONTGOMERY     PTCLDY    74  70  87 CALM      29.98S FOG
TROY           CLEAR     72  72 100 SW3       29.99S
ASHFORD*         N/A     75  73  94 N3        29.99R
DOTHAN         CLEAR     75  74  96 CALM      30.01R
PANAMA CITY    PTCLDY    77  75  93 CALM      29.96R

$$





USA.gov is the U.S. government's official web portal to all federal, state and local government web resources and services.